THORAD AGENA D DEB

Satellite information

Favourite Embed

Satellite Type and Status

DEBRISIN ORBIT

Key statistics

Satellite THORAD AGENA D DEB at a glance.

Uptime

20241

Days in orbit

Revolutions

≈ 14.0

Per day

Orbit

SSO

Sun Synchronous Orbit

Inclination

99.9

Latest

Satellite identification and parameters

Extended collection of information and parameters for THORAD AGENA D DEB.

Object identification

Identified? True

Debris? True

Object name: THORAD AGENA D DEB

International designator: 1970-025JL

Object number (NORAD): 5066

Object ID (CCSDS): 5066

Country: UNITED STATES OF AMERICA (US)

Current information (Y/N): Y

RCS size: SMALL

Orbital parameters

Period: 102.638 minutes

Inclination: 99.8963 deg

SMA: 7261.59 km

Apoapsis: 930.514 km

Periapsis: 836.395 km

RAAN: 93.86 deg

Eccentricy: 0.00648058

Argument of periapsis: 175.6067 deg

Mean anomaly: 184.5679 deg

Mean motion: 14.02992056 rev/day

Mean motion (dot): 0.00001396 rev/day2

B* drag term: 0.00091520557 1/REarth

Two-line elements (TLE)

Creation date: Sept. 7, 2025, 3:09 a.m.

Reference frame: TEME

Reference center: EARTH

Epoch: Sept. 6, 2025, 12:19 p.m. UTC

TLE line 0: 0 THORAD AGENA D DEB

TLE line 1: 1 05066U 70025JL 25249.51319888 .00001396 00000-0 91521-3 0 9996

TLE line 2: 2 05066 99.8963 93.8600 0064806 175.6067 184.5679 14.02992056800876

Live tracking on map

Real-time ground track for satellite THORAD AGENA D DEB.

In-orbit conjunctions

A list of the most updated potential collisions computed for object THORAD AGENA D DEB.

Target Orbit TCA Probability of collision Miss distance Type
NOAA 7 SSO 2025-07-22 03:27:08 0.0001801788 404.0 (m) PAYLOAD
COSMOS 1275 DEB LEO 2024-08-02 05:03:17 0.0001896683 66.0 (m) DEBRIS

Associated space launch

Meteorological research and development satellite

THORAD AGENA D DEB was lifted into orbit during the mission ‘Thorad SLV-2G Agena D | Nimbus 4’, on board a Thorad SLV-2G Agena D space rocket.

The launch took place on April 8, 1970, 8:17 a.m. from Space Launch Complex 2E.

For more information about the launch, click the button.

Launch to space Thorad SLV-2G Agena D | Nimbus 4
Thorad SLV-2G Agena D | Nimbus 4

Agency: N/A

Status: Launch Successful

Launch date: April 8, 1970, 8:17 a.m. UTC

Rocket: Thorad SLV-2G Agena D

Launch pad: Space Launch Complex 2E

Location: Vandenberg SFB, CA, USA

...

Latest news about this satellite

There are no fresh news available about this satellite. Check back as we update our databases every day.


Newsletter sign-up

Weekly statistics, charts and insights to help you stay on top of the space industry.